• In Norway
  • List of Countries
  • For 7 days
  • Water Temperature
  • Satellite Maps
  • Weather Map
  • Weather Widgets
  • user-avatar
    Login

    Hourly Weather Sidi Bu-l-Abbas

    Today, 14 November, Wednesday

    Time Temperature Precipitation Wind Pressure Humidity
    00:00 +18°C° 0 mm 3 mps 723 mmHg 60%
    01:00 +17°C° 0 mm 3 mps 723 mmHg 60%
    02:00 +17°C° 0 mm 3 mps 722 mmHg 61%
    03:00 +17°C° 0 mm 4 mps 722 mmHg 62%
    04:00 +17°C° 0 mm 3 mps 722 mmHg 62%
    05:00 +16°C° 0 mm 3 mps 721 mmHg 63%
    06:00 +16°C° 0 mm 3 mps 721 mmHg 64%
    07:00 +17°C° 0 mm 4 mps 722 mmHg 60%
    08:00 +18°C° 0 mm 4 mps 722 mmHg 55%
    09:00 +19°C° 0 mm 5 mps 722 mmHg 50%
    10:00 +20°C° 0 mm 5 mps 721 mmHg 46%
    11:00 +22°C° 0 mm 5 mps 721 mmHg 41%
    12:00 +23°C° 0 mm 5 mps 721 mmHg 36%
    13:00 +23°C° 0 mm 5 mps 720 mmHg 35%
    14:00 +23°C° 0 mm 5 mps 720 mmHg 34%
    15:00 +25°C° 0 mm 5 mps 719 mmHg 34%
    16:00 +22°C° 0 mm 5 mps 719 mmHg 38%
    17:00 +21°C° 0 mm 4 mps 719 mmHg 43%
    18:00 +20°C° 0 mm 4 mps 719 mmHg 47%
    19:00 +20°C° 0.1 mm 4 mps 719 mmHg 49%
    20:00 +19°C° 0.1 mm 5 mps 719 mmHg 51%
    21:00 +19°C° 0.1 mm 5 mps 719 mmHg 53%
    22:00 +18°C° 0.3 mm 4 mps 719 mmHg 57%
    23:00 +18°C° 0.3 mm 4 mps 719 mmHg 60%

    Tomorrow, 15 November, Thursday

    Time Temperature Precipitation Wind Pressure Humidity
    00:00 +18°C° 0.3 mm 3 mps 719 mmHg 63%
    01:00 +17°C° 0.1 mm 4 mps 718 mmHg 65%
    02:00 +17°C° 0.1 mm 4 mps 718 mmHg 67%
    03:00 +15°C° 0.1 mm 4 mps 718 mmHg 69%
    04:00 +16°C° 0 mm 3 mps 718 mmHg 70%
    05:00 +16°C° 0 mm 3 mps 718 mmHg 71%
    06:00 +16°C° 0 mm 2 mps 718 mmHg 71%
    07:00 +17°C° 0 mm 2 mps 718 mmHg 68%
    08:00 +17°C° 0 mm 2 mps 719 mmHg 64%
    09:00 +19°C° 0 mm 1 mps 719 mmHg 61%
    10:00 +19°C° 0 mm 2 mps 719 mmHg 58%
    11:00 +19°C° 0 mm 2 mps 719 mmHg 55%
    12:00 +20°C° 0 mm 2 mps 719 mmHg 53%
    13:00 +20°C° 0 mm 2 mps 719 mmHg 53%
    14:00 +20°C° 0 mm 3 mps 719 mmHg 54%
    15:00 +20°C° 0 mm 3 mps 719 mmHg 54%
    16:00 +19°C° 0 mm 2 mps 719 mmHg 59%
    17:00 +18°C° 0 mm 2 mps 719 mmHg 63%
    18:00 +18°C° 0 mm 2 mps 719 mmHg 68%
    19:00 +18°C° 0 mm 1 mps 719 mmHg 71%
    20:00 +18°C° 0 mm 1 mps 720 mmHg 75%
    21:00 +15°C° 0 mm 0 mps 720 mmHg 78%
    22:00 +15°C° 0 mm 0 mps 720 mmHg 79%
    23:00 +15°C° 0 mm 0 mps 720 mmHg 80%

    Day after tomorrow, 16 November, Friday

    Time Temperature Precipitation Wind Pressure Humidity
    00:00 +14°C° 0 mm 0 mps 720 mmHg 81%
    01:00 +14°C° 0 mm 0 mps 720 mmHg 82%
    02:00 +14°C° 0 mm 0 mps 720 mmHg 82%
    03:00 +13°C° 0 mm 0 mps 719 mmHg 83%
    04:00 +13°C° 0 mm 0 mps 719 mmHg 83%
    05:00 +13°C° 0 mm 0 mps 719 mmHg 83%
    06:00 +14°C° 0 mm 1 mps 719 mmHg 83%
    07:00 +15°C° 0 mm 1 mps 720 mmHg 76%
    08:00 +16°C° 0 mm 1 mps 720 mmHg 70%
    09:00 +19°C° 0 mm 1 mps 720 mmHg 64%
    10:00 +19°C° 0 mm 1 mps 720 mmHg 59%
    11:00 +19°C° 0 mm 2 mps 720 mmHg 55%
    12:00 +20°C° 0 mm 2 mps 719 mmHg 50%
    13:00 +21°C° 0 mm 2 mps 719 mmHg 48%
    14:00 +21°C° 0 mm 3 mps 719 mmHg 46%
    15:00 +21°C° 0 mm 3 mps 718 mmHg 45%
    16:00 +20°C° 0 mm 3 mps 718 mmHg 49%
    17:00 +19°C° 0 mm 3 mps 718 mmHg 53%
    18:00 +18°C° 0 mm 4 mps 718 mmHg 58%
    19:00 +18°C° 0 mm 3 mps 718 mmHg 61%
    20:00 +17°C° 0 mm 3 mps 718 mmHg 64%
    21:00 +17°C° 0 mm 2 mps 718 mmHg 67%
    22:00 +17°C° 0 mm 2 mps 718 mmHg 68%
    23:00 +18°C° 0 mm 1 mps 718 mmHg 69%

    17 November, Saturday

    Time Temperature Precipitation Wind Pressure Humidity
    00:00 +16°C° 0 mm 1 mps 718 mmHg 70%
    01:00 +16°C° 0 mm 1 mps 718 mmHg 72%
    02:00 +15°C° 0 mm 1 mps 717 mmHg 74%
    03:00 +15°C° 0 mm 1 mps 717 mmHg 75%
    04:00 +15°C° 0 mm 1 mps 717 mmHg 78%
    05:00 +14°C° 0 mm 1 mps 717 mmHg 80%
    06:00 +14°C° 0 mm 1 mps 717 mmHg 83%
    07:00 +15°C° 0.1 mm 1 mps 717 mmHg 78%
    08:00 +16°C° 0.1 mm 1 mps 717 mmHg 74%
    09:00 +17°C° 0.1 mm 2 mps 718 mmHg 69%
    10:00 +17°C° 0 mm 2 mps 717 mmHg 66%
    11:00 +18°C° 0 mm 2 mps 717 mmHg 62%
    12:00 +19°C° 0 mm 2 mps 717 mmHg 59%
    13:00 +19°C° 0 mm 3 mps 717 mmHg 59%
    14:00 +19°C° 0 mm 3 mps 716 mmHg 60%
    15:00 +19°C° 0 mm 3 mps 716 mmHg 60%
    16:00 +18°C° 0 mm 3 mps 716 mmHg 65%
    17:00 +17°C° 0 mm 2 mps 716 mmHg 71%
    18:00 +16°C° 0 mm 2 mps 716 mmHg 76%
    19:00 +16°C° 0 mm 2 mps 716 mmHg 77%
    20:00 +16°C° 0 mm 1 mps 715 mmHg 79%
    21:00 +16°C° 0 mm 1 mps 715 mmHg 81%
    22:00 +15°C° 0 mm 1 mps 715 mmHg 81%
    23:00 +15°C° 0 mm 1 mps 714 mmHg 81%

    18 November, Sunday

    Time Temperature Precipitation Wind Pressure Humidity
    00:00 +15°C° 0 mm 1 mps 714 mmHg 80%
    01:00 +15°C° 0 mm 2 mps 713 mmHg 78%
    02:00 +15°C° 0 mm 2 mps 713 mmHg 76%
    03:00 +15°C° 0 mm 2 mps 712 mmHg 73%
    04:00 +15°C° 0 mm 2 mps 712 mmHg 70%
    05:00 +15°C° 0 mm 2 mps 712 mmHg 66%
    06:00 +16°C° 0 mm 3 mps 712 mmHg 63%
    07:00 +16°C° 0 mm 3 mps 712 mmHg 58%
    08:00 +17°C° 0 mm 3 mps 712 mmHg 52%
    09:00 +18°C° 0 mm 3 mps 712 mmHg 47%
    10:00 +19°C° 0 mm 4 mps 712 mmHg 43%
    11:00 +20°C° 0 mm 6 mps 712 mmHg 40%
    12:00 +21°C° 0 mm 7 mps 712 mmHg 36%
    13:00 +21°C° 0 mm 6 mps 712 mmHg 38%
    14:00 +21°C° 0 mm 6 mps 712 mmHg 39%
    15:00 +20°C° 0 mm 5 mps 712 mmHg 41%
    16:00 +19°C° 0 mm 4 mps 712 mmHg 45%
    17:00 +18°C° 0 mm 3 mps 712 mmHg 49%
    18:00 +18°C° 0 mm 2 mps 713 mmHg 54%
    19:00 +17°C° 0.1 mm 2 mps 713 mmHg 56%
    20:00 +18°C° 0.1 mm 1 mps 713 mmHg 58%
    21:00 +18°C° 0.1 mm 1 mps 714 mmHg 60%
    22:00 +16°C° 0.2 mm 1 mps 714 mmHg 62%
    23:00 +16°C° 0.2 mm 1 mps 713 mmHg 64%

    19 November, Monday

    Time Temperature Precipitation Wind Pressure Humidity
    00:00 +16°C° 0.2 mm 1 mps 713 mmHg 66%
    01:00 +15°C° 0.3 mm 2 mps 713 mmHg 68%
    02:00 +15°C° 0.3 mm 2 mps 713 mmHg 70%
    03:00 +15°C° 0.3 mm 2 mps 713 mmHg 72%
    04:00 +14°C° 0.4 mm 2 mps 713 mmHg 74%
    05:00 +14°C° 0.4 mm 1 mps 713 mmHg 76%
    06:00 +14°C° 0.4 mm 1 mps 712 mmHg 79%
    07:00 +14°C° 0.7 mm 1 mps 713 mmHg 77%
    08:00 +14°C° 0.7 mm 2 mps 713 mmHg 76%
    09:00 +14°C° 0.7 mm 2 mps 714 mmHg 75%
    10:00 +15°C° 0.3 mm 2 mps 714 mmHg 71%
    11:00 +14°C° 0.3 mm 3 mps 714 mmHg 67%
    12:00 +14°C° 0.3 mm 3 mps 713 mmHg 62%
    13:00 +14°C° 0 mm 3 mps 713 mmHg 61%
    14:00 +14°C° 0 mm 4 mps 713 mmHg 60%
    15:00 +14°C° 0 mm 4 mps 713 mmHg 58%
    16:00 +14°C° 0 mm 3 mps 713 mmHg 61%
    17:00 +14°C° 0 mm 2 mps 714 mmHg 63%
    18:00 +14°C° 0 mm 1 mps 714 mmHg 66%
    19:00 +14°C° 0 mm 1 mps 714 mmHg 66%
    20:00 +13°C° 0 mm 1 mps 715 mmHg 67%
    21:00 +13°C° 0 mm 2 mps 715 mmHg 68%
    22:00 +13°C° 0 mm 2 mps 715 mmHg 66%
    23:00 +13°C° 0 mm 2 mps 715 mmHg 65%
    Show more